Formigueres, France 16 day weather forecast

Slopes altitude range 1750 m - 2400m

Number of lifts: 7 Pistes: 22km

In some cases the lift and piste totals shown are for the ski domain (e.g. Three Valleys) rather than individual resort (e.g. Courchevel)

Overview

The 16 day weather forecast is fully updated 4 times every day.

    • Sat 20 APR 2019
    • Sat 20
    • 4C 11C
    • Sun 21 APR 2019
    • Sun 21
    • 2C 4C
    • Mon 22 APR 2019
    • Mon 22
    • 3C 4C
    • Tue 23 APR 2019
    • Tue 23
    • 3C 9C
    • Wed 24 APR 2019
    • Wed 24
    • 1C 7C
    • Thu 25 APR 2019
    • Thu 25
    • 3C 6C
    • Fri 26 APR 2019
    • Fri 26
    • -3C 4C
    • Sat 27 APR 2019
    • Sat 27
    • -1C 9C
    • Sun 28 APR 2019
    • Sun 28
    • 7C 17C
    • Mon 29 APR 2019
    • Mon 29
    • 10C 21C
    • Tue 30 APR 2019
    • Tue 30
    • 11C 23C
    • Wed 01 MAY 2019
    • Wed 01
    • 12C 19C
    • Thu 02 MAY 2019
    • Thu 02
    • 12C 22C
    • Fri 03 MAY 2019
    • Fri 03
    • 10C 22C
    • Sat 04 MAY 2019
    • Sat 04
    • 11C 23C
    • Sun 05 MAY 2019
    • Sun 05
    • 13C 24C

Date:

Time Type 0°C level Temp Chill Snow Cloud Speed Gust Dir Press
3:00 3466m 3°C 3_4 0cm 100% 4mph 5mph 1023mB
6:00 3272m 2°C 2_4 0cm 100% 4mph 5mph 1023mB
9:00 3045m 4°C 4_6 0cm 100% 6mph 8mph 1022mB
12:00 2687m 11°C 11_8 0cm 99% 8mph 8mph 1021mB
15:00 2498m 10°C 10_7 0cm 100% 7mph 9mph 1020mB
18:00 2412m 10°C 10_5 0cm 100% 5mph 9mph 1020mB
21:00 2147m 3°C 3_4 2cm 100% 4mph 8mph 1021mB
0:00 2079m 1°C 1_3 6cm 100% 3mph 5mph 1020mB
3:00 2025m 1°C 1_4 4cm 100% 4mph 7mph 1018mB
6:00 2182m 1°C 1_6 0cm 99% 6mph 11mph 1017mB
9:00 2134m 2°C 2_7 0cm 99% 7mph 13mph 1016mB
12:00 2184m 4°C 4_7 0cm 97% 7mph 11mph 1014mB
15:00 2281m 5°C 5_7 0cm 86% 7mph 11mph 1012mB
18:00 2270m 5°C 5_5 0cm 92% 5mph 8mph 1011mB
21:00 2245m 0°C 0_4 0cm 80% 4mph 6mph 1011mB
0:00 2285m 0°C 0_5 0cm 86% 5mph 9mph 1009mB
3:00 2244m 1°C 1_6 0cm 99% 6mph 11mph 1007mB
6:00 2288m 1°C 1_6 0cm 98% 6mph 11mph 1005mB
9:00 2315m 3°C 3_7 0cm 100% 7mph 11mph 1003mB
12:00 2335m 4°C 4_5 0cm 100% 5mph 7mph 1002mB
15:00 2442m 4°C 4_2 0cm 100% 2mph 3mph 1001mB
18:00 2511m 4°C 4_3 0cm 100% 3mph 4mph 1000mB
21:00 2574m 3°C 3_3 0cm 99% 3mph 3mph 1001mB
0:00 2533m 2°C 2_4 0cm 99% 4mph 5mph 999mB
3:00 2546m 2°C 2_4 0cm 100% 4mph 5mph 998mB
6:00 2474m 2°C 2_5 0cm 100% 5mph 7mph 998mB
9:00 2497m 3°C 3_8 0cm 82% 8mph 11mph 999mB
12:00 2658m 9°C 9_10 0cm 87% 10mph 16mph 998mB
15:00 2601m 9°C 9_11 0cm 89% 11mph 18mph 997mB
18:00 2576m 9°C 9_8 0cm 86% 8mph 12mph 999mB
21:00 2539m 4°C 4_7 0cm 90% 7mph 11mph 1002mB
0:00 2440m 2°C 2_6 1cm 92% 6mph 11mph 1002mB
3:00 1827m 0°C 0_7 0cm 58% 7mph 13mph 1003mB
6:00 1916m -1°C -1_9 0cm 39% 9mph 24mph 1005mB
9:00 2103m 1°C 1_13 0cm 77% 13mph 30mph 1006mB
12:00 2234m 7°C 7_14 0cm 41% 14mph 27mph 1006mB
15:00 2342m 7°C 7_12 0cm 4% 12mph 19mph 1006mB
18:00 2209m 7°C 7_9 0cm 52% 9mph 18mph 1007mB
21:00 1849m 0°C 0_8 0cm 30% 8mph 14mph 1010mB
0:00 1978m 0°C 0_7 0cm 17% 7mph 12mph 1010mB
3:00 2160m 0°C 0_10 1cm 64% 10mph 29mph 1009mB
6:00 2216m 0°C 0_12 0cm 75% 12mph 33mph 1009mB
9:00 2178m 3°C 3_10 0cm 92% 10mph 22mph 1010mB
12:00 2252m 6°C 6_12 1cm 87% 12mph 30mph 1010mB
15:00 2368m 7°C 7_9 1cm 38% 9mph 21mph 1010mB
18:00 1931m 7°C 7_5 6cm 58% 5mph 6mph 1014mB
21:00 1603m -1°C -1_6 2cm 95% 6mph 9mph 1018mB
0:00 1061m -5°C -5_5 2cm 66% 5mph 6mph 1020mB
3:00 998m -5°C -5_5 0cm 28% 5mph 6mph 1021mB
6:00 1399m -5°C -5_7 0cm 30% 7mph 24mph 1023mB
9:00 1787m -3°C -3_9 0cm 67% 9mph 19mph 1023mB
12:00 2004m 4°C 4_7 0cm 55% 7mph 13mph 1024mB
15:00 2128m 5°C 5_7 0cm 10% 7mph 10mph 1024mB
18:00 1956m 5°C 5_7 0cm 6% 7mph 10mph 1026mB
21:00 1316m -3°C -3_7 0cm 2% 7mph 11mph 1029mB
0:00 1260m -4°C -4_8 0cm 1% 8mph 13mph 1030mB
3:00 1261m -4°C -4_8 0cm 3% 8mph 13mph 1029mB
6:00 1584m -4°C -4_9 0cm 2% 9mph 14mph 1029mB
9:00 2282m -1°C -1_10 0cm 0% 10mph 16mph 1027mB
12:00 2598m 9°C 9_9 0cm 0% 9mph 13mph 1025mB
15:00 2892m 15°C 15_13 0cm 0% 13mph 19mph 1024mB
18:00 2960m 15°C 15_9 0cm 0% 9mph 17mph 1025mB
21:00 3066m 8°C 8_9 0cm 0% 9mph 18mph 1027mB
0:00 3119m 7°C 7_7 0cm 0% 7mph 17mph 1026mB
3:00 3153m 6°C 6_6 0cm 0% 6mph 10mph 1025mB
6:00 3375m 5°C 5_6 0cm 0% 6mph 12mph 1024mB
9:00 3414m 7°C 7_10 0cm 0% 10mph 17mph 1022mB
12:00 3368m 17°C 17_12 0cm 0% 12mph 17mph 1020mB
15:00 3378m 17°C 17_10 0cm 0% 10mph 14mph 1019mB
18:00 3473m 18°C 18_6 0cm 0% 6mph 14mph 1019mB
21:00 3606m 10°C 10_7 0cm 0% 7mph 11mph 1021mB
0:00 3518m 9°C 9_5 0cm 0% 5mph 7mph 1020mB
3:00 3401m 8°C 8_5 0cm 0% 5mph 6mph 1019mB
6:00 3377m 8°C 8_4 0cm 0% 4mph 6mph 1018mB
9:00 3356m 10°C 10_6 0cm 0% 6mph 10mph 1017mB
12:00 3347m 21°C 21_7 0cm 0% 7mph 8mph 1015mB
15:00 3295m 21°C 21_7 0cm 0% 7mph 7mph 1013mB
18:00 3260m 21°C 21_4 0cm 0% 4mph 5mph 1013mB
21:00 3352m 12°C 12_4 0cm 0% 4mph 5mph 1014mB
0:00 3308m 12°C 12_4 0cm 0% 4mph 5mph 1014mB
Afternoon 0mm 0 3202m 23°C 23_9 0cm 10% 9mph 10mph 1009mB
Morning 0mm 0 3116m 14°C 14_9 0cm 80% 9mph 18mph 1007mB
Afternoon 0.104167mm 0 2961m 19°C 19_11 0cm 85% 11mph 14mph 1005mB
Morning 0mm 0 3093m 14°C 14_6 0cm 70% 6mph 12mph 1005mB
Afternoon 0.0104167mm 0 2969m 22°C 22_9 0cm 79% 9mph 14mph 1006mB
Morning 0.161458mm 1.9375 2987m 11°C 11_4 0cm 42% 4mph 6mph 1009mB
Afternoon 0.00520833mm 0.0625 2857m 22°C 22_8 0cm 30% 8mph 8mph 1010mB
Morning 0.00520833mm 0.0625 3198m 12°C 12_5 0cm 21% 5mph 6mph 1011mB
Afternoon 0mm 0 3096m 23°C 23_6 0cm 4% 6mph 5mph 1011mB
Morning 0.0520833mm 0.625 3186m 13°C 13_4 0cm 81% 4mph 5mph 1011mB
Afternoon 0.00520833mm 0 3089m 24°C 24_7 0cm 52% 7mph 7mph 1010mB
Morning 0.65625mm 7.875 3107m 12°C 12_5 0cm 23% 5mph 5mph 1013mB

16 day outlook at a glance

Forecast issued: 20/04/2019 06:18:12

Chat

Your comments and questions. In a resort? Let us know what it's like!


Characters left 250

For terms and conditions see Readers Comments on the Cookie and privacy policy page.